Home   Weather   Wuhan   Past weeks

Flag for China Past Weather in Wuhan, Hubei, China — Yesterday and Last 2 Weeks

Now
66 °F

Scattered clouds.


Feels Like: 66 °F
Forecast: 63 / 68 °F
Wind: 10 mph from Northeast

Location: Wuhan Airport

Current Time: Sep 29, 2016 at 2:50:25 PM

Latest Report: Sep 29, 2016 at 2:00 PM


Visibility: 4 mi

Pressure: 29.92 "Hg

Humidity: 73%

Dew Point: 57 °F

Location of WuhanLocation

Past Weather in Wuhan — Graph

°F

Wuhan Temperature Yesterday

Maximum temperature yesterday: 75 °F (at 1:00 AM)
Minimum temperature yesterday: 64 °F (at 10:00 PM)
Average temperature yesterday: 71 °F

High & Low Weather Summary for the Past Weeks

 TemperatureHumidityPressure
High93 °F (Sep 14, 3:00 PM)100% (Sep 26, 5:00 AM)30.12 "Hg (Sep 26, 5:00 AM)
Low61 °F (Sep 29, 3:00 AM)27% (Sep 21, 5:00 PM)29.74 "Hg (Sep 16, 3:00 AM)
Average77 °F65%29.90 "Hg
* Reported Sep 14 1:00 PM — Sep 29 1:00 PM, Wuhan, Weather by CustomWeather, © 2016

Note: Actual official high and low records may vary slightly from our data, if they occured in-between our weather recording intervals... More about our weather records

Advertising

Wuhan Weather History for the Previous 24 Hours

Scroll right to see more
 ConditionsComfort  
Time TempWeatherWind HumidityBarometerVisibility
1:00 PM
Thu, Sep 29
66 °FScattered clouds.15 mph73%29.92 "Hg4 mi
12:00 PM66 °FLight rain. Scattered clouds.13 mph73%29.95 "Hg4 mi
11:00 AM64 °FScattered clouds.15 mph73%29.98 "HgN/A
10:00 AM64 °FPassing clouds.13 mph73%29.98 "HgN/A
9:00 AM63 °FPassing clouds.13 mph77%29.98 "HgN/A
8:00 AM63 °FSunny.15 mph77%29.98 "Hg10 mi
7:00 AM61 °FScattered clouds.10 mph83%29.98 "HgN/A
6:00 AM61 °FPassing clouds.13 mph88%29.95 "Hg5 mi
5:00 AM61 °FPassing clouds.15 mph88%29.95 "Hg5 mi
4:00 AM63 °FPassing clouds.13 mph88%29.92 "Hg5 mi
3:00 AM61 °FLight rain. Passing clouds.15 mph94%29.92 "Hg4 mi
2:00 AM63 °FLight rain. Passing clouds.13 mph94%29.95 "Hg4 mi
1:00 AM63 °FLight rain. Passing clouds.13 mph94%29.95 "Hg4 mi
12:00 AM63 °FPassing clouds.10 mph94%29.98 "HgN/A
11:00 PM
Wed, Sep 28
64 °FClear.15 mph78%29.98 "Hg10 mi
10:00 PM64 °FPassing clouds.17 mph83%29.98 "HgN/A
9:00 PM66 °FPassing clouds.15 mph73%29.98 "HgN/A
8:00 PM66 °FClear.13 mph73%29.98 "Hg10 mi
7:00 PM66 °FClear.20 mph78%29.95 "Hg10 mi
6:00 PM68 °FPassing clouds.15 mph78%29.92 "HgN/A
5:00 PM68 °FScattered clouds.15 mph78%29.92 "HgN/A
4:00 PM70 °FScattered clouds.17 mph73%29.92 "HgN/A
3:00 PM72 °FScattered clouds.20 mph69%29.89 "HgN/A
2:00 PM72 °FScattered clouds.17 mph73%29.92 "HgN/A
Weather by CustomWeather, © 2016

See weather overviewHow to use our weather pages